Valparaiso, IN

9:46 PM CDT on May 25, 2018 (GMT -0500)
Porter County Municipal

Weather History for KVPZ - August, 2012

Change the Weather History Date:

Thursday, August 16, 2012

  Actual Average Record
Temperature  
Mean Temperature 68 °F 71 °F  
Max Temperature 74 °F 80 °F 92 °F (2009)
Min Temperature 62 °F 61 °F 48 °F (2004)
Degree Days  
Heating Degree Days 0 0  
Month to date heating degree days 1 0  
Since 1 June heating degree days 34 45  
Since 1 July heating degree days 1 4  
Cooling Degree Days 3 6  
Month to date cooling degree days 105 106  
Year to date cooling degree days 894 557  
Since 1 June cooling degree days 743 510  
Growing Degree Days 20 (Base 50)    
Moisture  
Dew Point 62 °F    
Average Humidity 83    
Maximum Humidity 94    
Minimum Humidity 64    
Precipitation  
Precipitation 0.50 in 0.15 in 0.58 in (2016)
Month to date precipitation 2.45 2.16  
Year to date precipitation 18.12 23.39  
Sea Level Pressure  
Sea Level Pressure 29.88 in    
Wind  
Wind Speed 8 mph (SW)    
Max Wind Speed 21 mph    
Max Gust Speed 31 mph    
Visibility 8 miles    
Events Rain , Thunderstorm    
T = Trace of Precipitation, MM = Missing Value Source: NWS Daily Summary

Daily Weather History Graph

Daily Weather History Graph

Search for Another Location

Airport or City:

Astronomy

Aug. 16, 2012 Rise Set
Actual Time 5:58 AM CDT 7:45 PM CDT
Civil Twilight 5:28 AM CDT 8:14 PM CDT
Nautical Twilight 4:52 AM CDT 8:50 PM CDT
Astronomical Twilight 4:14 AM CDT 9:29 PM CDT
Moon 4:56 AM CDT (8/16) 6:53 PM CDT (8/16)
Length of Visible Light 14h 45m
Length of Day
13h 46m
Waning Crescent, 1% of the Moon is Illuminated
Aug 16
Waning Crescent
Aug 17
New
Aug 24
First Quarter
Aug 31
Full
Sep 8
Last Quarter

Hourly Weather History & Observations

Time (CDT) Temp. Dew Point Humidity Pressure Visibility Wind Dir Wind Speed Gust Speed Precip Events Conditions
12:53 AM 69.1 °F 60.1 °F 73% 29.93 in 10.0 mi Calm Calm - N/A   Clear
1:53 AM 68.0 °F 59.0 °F 73% 29.93 in 10.0 mi Calm Calm - N/A   Clear
2:53 AM 68.0 °F 60.1 °F 76% 29.93 in 10.0 mi Calm Calm - 0.01 in   Scattered Clouds
3:53 AM 69.1 °F 59.0 °F 70% 29.92 in 10.0 mi SSW 5.8 mph - N/A   Clear
4:53 AM 66.9 °F 59.0 °F 76% 29.89 in 10.0 mi South 5.8 mph - N/A   Clear
5:53 AM 66.0 °F 57.9 °F 75% 29.87 in 10.0 mi South 5.8 mph - N/A   Clear
6:53 AM 68.0 °F 57.9 °F 70% 29.88 in 10.0 mi SSW 9.2 mph - N/A   Clear
7:53 AM 71.1 °F 59.0 °F 66% 29.87 in 10.0 mi SSW 9.2 mph - N/A   Clear
8:53 AM 72.0 °F 59.0 °F 64% 29.86 in 10.0 mi SSW 12.7 mph 20.7 mph N/A   Mostly Cloudy
9:14 AM 71.6 °F 60.8 °F 69% 29.93 in 10.0 mi West 13.8 mph 31.1 mph N/A Thunderstorm Mostly Cloudy
9:36 AM 68.0 °F 62.6 °F 83% 29.94 in 1.8 mi West 17.3 mph 24.2 mph 0.11 in Rain , Thunderstorm Heavy Rain
9:53 AM 66.9 °F 64.9 °F 93% 29.93 in 1.5 mi West 15.0 mph 24.2 mph 0.32 in Rain , Thunderstorm Light Thunderstorms and Rain
9:57 AM 66.2 °F 64.4 °F 94% 29.96 in 3.0 mi WSW 16.1 mph - 0.00 in Rain , Thunderstorm Light Thunderstorms and Rain
10:32 AM 66.2 °F 64.4 °F 94% 29.93 in 5.0 mi SSW 11.5 mph - 0.08 in Rain Light Rain
10:53 AM 66.0 °F 64.0 °F 93% 29.88 in 3.0 mi South 11.5 mph - 0.13 in Rain Light Rain
11:01 AM 66.2 °F 64.4 °F 94% 29.86 in 4.0 mi South 11.5 mph 19.6 mph 0.02 in Rain , Thunderstorm Light Rain
11:16 AM 66.2 °F 64.4 °F 94% 29.85 in 6.0 mi South 12.7 mph - 0.03 in Rain Light Rain
11:53 AM 71.1 °F 64.9 °F 81% 29.81 in 10.0 mi SSE 6.9 mph - 0.04 in   Partly Cloudy
12:53 PM 73.0 °F 64.0 °F 73% 29.86 in 10.0 mi SW 9.2 mph - N/A   Clear
1:53 PM 70.0 °F 64.0 °F 81% 29.86 in 10.0 mi SSW 9.2 mph - N/A   Overcast
2:53 PM 69.1 °F 64.0 °F 84% 29.85 in 10.0 mi SW 10.4 mph - N/A   Scattered Clouds
3:53 PM 69.1 °F 64.0 °F 84% 29.85 in 10.0 mi SW 9.2 mph - N/A   Mostly Cloudy
4:53 PM 68.0 °F 64.0 °F 87% 29.82 in 10.0 mi SSW 8.1 mph - N/A   Mostly Cloudy
5:53 PM 66.9 °F 64.0 °F 90% 29.85 in 10.0 mi SSW 6.9 mph - N/A   Scattered Clouds
6:30 PM 66.2 °F 62.6 °F 88% 29.86 in 10.0 mi SSW 8.1 mph - N/A   Overcast
6:53 PM 66.9 °F 63.0 °F 87% 29.86 in 10.0 mi SW 8.1 mph - N/A   Overcast
7:53 PM 66.9 °F 63.0 °F 87% 29.86 in 10.0 mi WSW 10.4 mph - N/A   Mostly Cloudy
8:06 PM 66.2 °F 62.6 °F 88% 29.87 in 10.0 mi WSW 10.4 mph - N/A   Mostly Cloudy
8:53 PM 66.0 °F 64.0 °F 93% 29.88 in 10.0 mi WSW 8.1 mph - N/A   Scattered Clouds
9:02 PM 66.2 °F 64.4 °F 94% 29.89 in 10.0 mi WSW 6.9 mph - N/A   Mostly Cloudy
9:53 PM 66.9 °F 64.0 °F 90% 29.90 in 8.0 mi WSW 6.9 mph - N/A   Overcast
10:53 PM 66.0 °F 64.0 °F 93% 29.91 in 5.0 mi West 6.9 mph - N/A   Partly Cloudy
11:53 PM 64.9 °F 59.0 °F 81% 29.91 in 10.0 mi WNW 4.6 mph - N/A   Clear